Miscellaneous Local Product
Issued by NWS Hastings, NE

Home | Current Version | Previous Version | Graphics & Text | Print | Product List | Glossary On
Versions: 1 2 3 4 5 6 7 8 9 10 11 12 13 14 15 16 17 18 19 20 21 22 23 24 25 26 27 28 29 30 31 32 33 34 35 36 37 38 39 40 41 42 43 44 45 46 47 48 49 50
000
AXUS43 KGID 301802
MISGRI

GID CWA HOURLY WEATHER ROUNDUP
NATIONAL WEATHER SERVICE HASTINGS NE
100 PM CDT THU JUL 30 2015

NOTE: "FAIR" INDICATES FEW OR NO CLOUDS BELOW 12,000 FEET WITH NO
SIGNIFICANT WEATHER AND/OR OBSTRUCTIONS TO VISIBILITY.

...SOUTH CENTRAL NEBRASKA...

CITY           SKY/WX    TMP DP  RH WIND       PRES   REMARKS
GRAND ISLAND   SUNNY     85  57  38 SW9       30.24F
HASTINGS       SUNNY     83  64  52 SW12      30.23F
KEARNEY        SUNNY     82  64  54 S9        30.24S
ORD            SUNNY     85  62  46 S10       30.22S
YORK           SUNNY     84  63  48 W12       30.24R
AURORA         SUNNY     83  62  49 SW8       30.23F
LEXINGTON      SUNNY     83  64  52 SW9       30.25F
HOLDREGE       MOSUNNY   82  62  50 S7        30.25S
HEBRON         SUNNY     84  60  44 S9        30.24S

...NEBRASKA PANHANDLE...

CITY           SKY/WX    TMP DP  RH WIND       PRES   REMARKS
CHADRON        SUNNY     85  49  28 MISG      30.27F
ALLIANCE       SUNNY     85  55  35 NE8       30.28F
SCOTTSBLUFF    SUNNY     82  57  42 MISG      30.29F
SIDNEY         SUNNY     85  56  37 S12       30.31F

...WESTERN AND NORTH CENTRAL NEBRASKA...

CITY           SKY/WX    TMP DP  RH WIND       PRES   REMARKS
VALENTINE      SUNNY     89  48  24 VRB3      30.21F
AINSWORTH      MOSUNNY   85  58  39 S6        30.22F
ONEILL         SUNNY     85  60  42 W8        30.22S
BROKEN BOW     SUNNY     84  64  50 W7        30.24F
IMPERIAL       SUNNY     85  60  42 S8        30.27F
NORTH PLATTE   SUNNY     84  58  40 SW10      30.25F
MCCOOK         SUNNY     86  62  44 S9        30.25F

...EASTERN NEBRASKA...

CITY           SKY/WX    TMP DP  RH WIND       PRES   REMARKS
NORFOLK        SUNNY     86  56  35 W10G20    30.20F
SO SIOUX CITY  SUNNY     83  65  54 W13       30.17F
TEKAMAH        MOSUNNY   85  67  54 SW3       30.19F
COLUMBUS       SUNNY     84  63  48 W6        30.21F
ALBION         SUNNY     83  57  40 W8        30.23F
OMAHA EPPLEY   MOSUNNY   89  55  31 W9        30.20S
OFFUTT AFB     SUNNY     85  63  47 W6        30.19F
MILLARD        SUNNY     83  60  45 W5        30.21S
LINCOLN        SUNNY     89  55  31 SW14      30.21S
NEBRASKA CITY  SUNNY     82  57  41 SW12      30.22S
BEATRICE       SUNNY     84  62  47 SW9       30.22F
FALLS CITY     SUNNY     85  62  46 SW9       30.20F

...NORTHERN KANSAS...

CITY           SKY/WX    TMP DP  RH WIND       PRES   REMARKS
GOODLAND       SUNNY     84  62  47 S12       30.29F
HILL CITY      PTSUNNY   82  66  58 S8        30.25F
NORTON         PTCLDY    82  61  47 SE5       30.24F
PHILLIPSBURG   SUNNY     86  66  51 S7        30.24S HAZE
SMITH CENTER   SUNNY     82  63  51 SE12      30.23F
HAYS           MOSUNNY   81  64  57 SE9       30.24F
RUSSELL        PTSUNNY   80  68  66 SE6       30.23F
CONCORDIA      SUNNY     82  64  54 S12       30.23F
SALINA         SUNNY     82  68  62 S6        30.23F
TOPEKA         PTSUNNY   83  59  44 S5        30.22F



USA.gov is the U.S. government's official web portal to all federal, state and local government web resources and services.